DLH25F EDDF-EGLL

Flight info

Callsign DLH25F
Flight time 1h 4m
Altitude 36000
Route OBOKA3M OBOKA Z29 TORNU DCT ABNED L980 LOGAN
Aircraft A388/J-SADE2E3FGHIJ3J4J5M1RWXY/LB1D1

Departure

Time 2026-04-18 07:01
Airport Frankfurt Main Airport (EDDF)

Arrival

Time 2026-04-18 08:05
Airport London Heathrow Airport (EGLL)
Time Latitude Longitude Altitude Speed Heading
2026-04-18 06:07 50.04899 8.58069 361 ft 0 kts 340°
2026-04-18 06:53 50.04887 8.58075 356 ft 4 kts 348°
2026-04-18 06:54 50.04861 8.58079 352 ft 4 kts
2026-04-18 06:54 50.04835 8.58070 354 ft 4 kts 26°
2026-04-18 06:54 50.04813 8.58048 356 ft 4 kts 45°
2026-04-18 06:54 50.04796 8.58015 356 ft 4 kts 60°
2026-04-18 06:55 50.04784 8.57978 356 ft 4 kts 70°
2026-04-18 06:55 50.04780 8.57958 356 ft 0 kts 71°
2026-04-18 06:58 50.04791 8.58013 360 ft 20 kts 71°
2026-04-18 06:58 50.04870 8.58349 357 ft 37 kts 70°
2026-04-18 06:58 50.04913 8.58641 360 ft 19 kts 128°
2026-04-18 06:59 50.04838 8.58704 358 ft 19 kts 157°
2026-04-18 06:59 50.04747 8.58758 354 ft 21 kts 166°
2026-04-18 07:00 50.04641 8.58759 352 ft 25 kts 196°
2026-04-18 07:00 50.04516 8.58628 360 ft 40 kts 230°
2026-04-18 07:00 50.04348 8.57985 358 ft 109 kts 249°
2026-04-18 07:00 50.03990 8.56486 355 ft 178 kts 250°
2026-04-18 07:01 50.03496 8.54528 542 ft 206 kts 251°
2026-04-18 07:01 50.02909 8.52322 1104 ft 229 kts 249°
2026-04-18 07:01 50.02331 8.50044 2478 ft 220 kts 242°
2026-04-18 07:01 50.01354 8.48325 3990 ft 209 kts 213°
2026-04-18 07:02 50.00008 8.47579 5253 ft 206 kts 187°
2026-04-18 07:02 49.98549 8.47402 6068 ft 215 kts 185°
2026-04-18 07:02 49.97035 8.47220 6565 ft 220 kts 185°
2026-04-18 07:02 49.95516 8.46859 7049 ft 224 kts 197°
2026-04-18 07:03 49.93979 8.46106 7709 ft 242 kts 198°
2026-04-18 07:03 49.92324 8.45245 8337 ft 257 kts 206°
2026-04-18 07:03 49.90921 8.43540 9228 ft 260 kts 232°
2026-04-18 07:03 49.89960 8.41153 10147 ft 263 kts 240°
2026-04-18 07:04 49.89057 8.38662 11024 ft 267 kts 246°
2026-04-18 07:04 49.88592 8.35879 11881 ft 270 kts 266°
2026-04-18 07:04 49.88696 8.32956 12648 ft 278 kts 276°
2026-04-18 07:04 49.88893 8.29848 12962 ft 301 kts 277°
2026-04-18 07:05 49.89390 8.26623 13161 ft 323 kts 291°
2026-04-18 07:05 49.90485 8.23458 13364 ft 344 kts 306°
2026-04-18 07:05 49.91961 8.20454 13896 ft 353 kts 307°
2026-04-18 07:05 49.93446 8.17412 14615 ft 356 kts 309°
2026-04-18 07:06 49.95148 8.14592 15275 ft 360 kts 317°
2026-04-18 07:06 49.97063 8.12058 15937 ft 364 kts 319°
2026-04-18 07:06 49.99000 8.09491 16586 ft 367 kts 319°
2026-04-18 07:06 50.00939 8.06896 17227 ft 370 kts 319°
2026-04-18 07:07 50.02902 8.04261 17841 ft 374 kts 319°
2026-04-18 07:07 50.04881 8.01605 18398 ft 379 kts 319°
2026-04-18 07:07 50.06889 7.98909 18943 ft 383 kts 319°
2026-04-18 07:07 50.08910 7.96194 19551 ft 385 kts 319°
2026-04-18 07:08 50.10948 7.93454 20084 ft 388 kts 319°
2026-04-18 07:08 50.12998 7.90693 20622 ft 391 kts 319°
2026-04-18 07:08 50.15068 7.87905 21126 ft 395 kts 319°
2026-04-18 07:08 50.17127 7.85126 21654 ft 397 kts 319°
2026-04-18 07:09 50.19223 7.82294 22151 ft 400 kts 319°
2026-04-18 07:09 50.21340 7.79432 22640 ft 404 kts 319°
2026-04-18 07:09 50.23470 7.76560 23127 ft 406 kts 320°
2026-04-18 07:09 50.25779 7.73972 23573 ft 410 kts 328°
2026-04-18 07:10 50.28305 7.71864 24038 ft 413 kts 335°
2026-04-18 07:10 50.30950 7.70093 24502 ft 416 kts 336°
2026-04-18 07:10 50.33616 7.68275 24960 ft 418 kts 336°
2026-04-18 07:10 50.36291 7.66432 25421 ft 422 kts 336°
2026-04-18 07:11 50.38980 7.64577 25898 ft 424 kts 336°
2026-04-18 07:11 50.41693 7.62707 26389 ft 427 kts 336°
2026-04-18 07:11 50.44429 7.60821 26876 ft 431 kts 336°
2026-04-18 07:11 50.47188 7.58920 27349 ft 435 kts 336°
2026-04-18 07:12 50.49968 7.57002 27862 ft 437 kts 336°
2026-04-18 07:12 50.52764 7.55071 28317 ft 442 kts 336°
2026-04-18 07:12 50.55565 7.53037 28812 ft 444 kts 332°
2026-04-18 07:12 50.58217 7.50524 29260 ft 448 kts 326°
2026-04-18 07:13 50.60792 7.47845 29764 ft 451 kts 327°
2026-04-18 07:13 50.63430 7.45145 30247 ft 454 kts 327°
2026-04-18 07:13 50.66092 7.42429 30713 ft 457 kts 327°
2026-04-18 07:13 50.68765 7.39695 31174 ft 461 kts 327°
2026-04-18 07:14 50.71418 7.36867 31623 ft 464 kts 322°
2026-04-18 07:14 50.73814 7.33408 32083 ft 466 kts 312°
2026-04-18 07:14 50.75816 7.29372 32524 ft 469 kts 303°
2026-04-18 07:14 50.77409 7.24861 32940 ft 472 kts 296°
2026-04-18 07:15 50.78901 7.20224 33359 ft 475 kts 297°
2026-04-18 07:15 50.80421 7.15567 33757 ft 478 kts 297°
2026-04-18 07:15 50.81949 7.10888 34180 ft 481 kts 297°
2026-04-18 07:15 50.83485 7.06166 34592 ft 484 kts 297°
2026-04-18 07:16 50.85025 7.01415 35034 ft 486 kts 297°
2026-04-18 07:16 50.86560 6.96661 35576 ft 485 kts 297°
2026-04-18 07:16 50.88102 6.91874 35895 ft 489 kts 297°
2026-04-18 07:16 50.89631 6.87121 36004 ft 481 kts 297°
2026-04-18 07:17 50.92668 6.77652 36001 ft 487 kts 297°
2026-04-18 07:17 50.95727 6.68077 35999 ft 487 kts 296°
2026-04-18 07:18 50.98782 6.58476 36002 ft 487 kts 296°
2026-04-18 07:18 51.01827 6.48869 36000 ft 487 kts 296°
2026-04-18 07:19 51.04864 6.39251 36002 ft 487 kts 296°
2026-04-18 07:19 51.07893 6.29618 36002 ft 486 kts 296°
2026-04-18 07:20 51.10882 6.20078 36003 ft 486 kts 296°
2026-04-18 07:20 51.13733 6.10312 35998 ft 487 kts 290°
2026-04-18 07:21 51.15626 5.99990 36004 ft 486 kts 284°
2026-04-18 07:21 51.17326 5.89550 36001 ft 486 kts 284°
2026-04-18 07:22 51.19395 5.79305 36000 ft 486 kts 293°
2026-04-18 07:22 51.22050 5.69378 35998 ft 486 kts 292°
2026-04-18 07:23 51.24664 5.59416 36002 ft 487 kts 292°
2026-04-18 07:23 51.27274 5.49443 36003 ft 487 kts 292°
2026-04-18 07:24 51.29874 5.39469 35985 ft 485 kts 292°
2026-04-18 07:24 51.32449 5.29555 35965 ft 482 kts 292°
2026-04-18 07:25 51.35010 5.19648 35968 ft 483 kts 292°
2026-04-18 07:25 51.37552 5.09770 35977 ft 484 kts 292°
2026-04-18 07:26 51.40113 4.99775 35990 ft 485 kts 292°
2026-04-18 07:26 51.42667 4.89766 35994 ft 486 kts 292°
2026-04-18 07:27 51.45216 4.79728 36000 ft 487 kts 292°
2026-04-18 07:27 51.47762 4.69658 36006 ft 487 kts 292°
2026-04-18 07:28 51.50299 4.59579 36011 ft 488 kts 292°
2026-04-18 07:28 51.52830 4.49478 36016 ft 488 kts 291°
2026-04-18 07:29 51.55355 4.39356 36017 ft 488 kts 291°
2026-04-18 07:29 51.57874 4.29210 36018 ft 488 kts 291°
2026-04-18 07:30 51.60382 4.19062 36018 ft 488 kts 291°
2026-04-18 07:30 51.62881 4.08903 36016 ft 488 kts 291°
2026-04-18 07:31 51.65367 3.98750 36017 ft 488 kts 291°
2026-04-18 07:31 51.67836 3.88621 36014 ft 488 kts 291°
2026-04-18 07:32 51.70308 3.78436 36015 ft 488 kts 291°
2026-04-18 07:32 51.72769 3.68245 36014 ft 488 kts 291°
2026-04-18 07:33 51.75218 3.58057 36012 ft 487 kts 291°
2026-04-18 07:33 51.77664 3.47832 36010 ft 487 kts 291°
2026-04-18 07:34 51.80095 3.37622 36008 ft 487 kts 291°
2026-04-18 07:34 51.82514 3.27415 36007 ft 487 kts 290°
2026-04-18 07:35 51.84156 3.16883 35999 ft 486 kts 277°
2026-04-18 07:35 51.84192 3.05976 36003 ft 486 kts 263°
2026-04-18 07:36 51.83463 2.95117 35998 ft 486 kts 264°
2026-04-18 07:36 51.82764 2.84255 35999 ft 486 kts 264°
2026-04-18 07:37 51.82040 2.73376 36001 ft 486 kts 264°
2026-04-18 07:37 51.81304 2.62558 35754 ft 480 kts 264°
2026-04-18 07:38 51.80936 2.57217 35480 ft 478 kts 263°
2026-04-18 07:38 51.80566 2.51879 34757 ft 479 kts 263°
2026-04-18 07:38 51.80190 2.46504 33714 ft 484 kts 263°
2026-04-18 07:38 51.79809 2.41074 32522 ft 491 kts 263°
2026-04-18 07:39 51.79421 2.35587 31651 ft 489 kts 263°
2026-04-18 07:39 51.79034 2.30163 30954 ft 483 kts 263°
2026-04-18 07:39 51.78651 2.24812 30243 ft 478 kts 263°
2026-04-18 07:39 51.78276 2.19510 29565 ft 472 kts 264°
2026-04-18 07:40 51.77963 2.14300 29337 ft 458 kts 265°
2026-04-18 07:40 51.77680 2.09256 29166 ft 442 kts 265°
2026-04-18 07:40 51.77405 2.04408 29021 ft 428 kts 265°
2026-04-18 07:40 51.77131 1.99692 28887 ft 414 kts 264°
2026-04-18 07:41 51.76861 1.95143 28765 ft 401 kts 264°
2026-04-18 07:41 51.76594 1.90722 28657 ft 389 kts 264°
2026-04-18 07:41 51.76334 1.86446 28464 ft 376 kts 264°
2026-04-18 07:41 51.76081 1.82338 28325 ft 360 kts 264°
2026-04-18 07:42 51.75841 1.78449 28171 ft 346 kts 264°
2026-04-18 07:42 51.75602 1.74591 27617 ft 345 kts 264°
2026-04-18 07:42 51.75363 1.70760 27121 ft 341 kts 264°
2026-04-18 07:42 51.75126 1.66979 26662 ft 337 kts 264°
2026-04-18 07:43 51.74890 1.63236 26180 ft 334 kts 264°
2026-04-18 07:43 51.74655 1.59520 25618 ft 333 kts 264°
2026-04-18 07:43 51.74418 1.55796 25164 ft 329 kts 264°
2026-04-18 07:43 51.74187 1.52179 24841 ft 322 kts 264°
2026-04-18 07:44 51.73955 1.48557 24295 ft 327 kts 264°
2026-04-18 07:44 51.73716 1.44854 23675 ft 336 kts 264°
2026-04-18 07:44 51.73472 1.41080 23164 ft 339 kts 264°
2026-04-18 07:44 51.73223 1.37254 22564 ft 345 kts 264°
2026-04-18 07:45 51.72970 1.33396 22097 ft 346 kts 264°
2026-04-18 07:45 51.72718 1.29555 21728 ft 343 kts 264°
2026-04-18 07:45 51.72466 1.25748 21351 ft 341 kts 264°
2026-04-18 07:45 51.72213 1.21942 21062 ft 336 kts 264°
2026-04-18 07:46 51.71967 1.18263 20997 ft 324 kts 264°
2026-04-18 07:46 51.71732 1.14751 20822 ft 317 kts 264°
2026-04-18 07:46 51.71731 1.11198 20317 ft 320 kts 281°
2026-04-18 07:46 51.72206 1.08883 19979 ft 322 kts 297°
2026-04-18 07:47 51.73734 1.04759 19318 ft 326 kts 301°
2026-04-18 07:47 51.74536 1.02647 18953 ft 328 kts 301°
2026-04-18 07:47 51.75742 0.99470 18125 ft 337 kts 301°
2026-04-18 07:47 51.76971 0.96228 17135 ft 347 kts 301°
2026-04-18 07:48 51.78091 0.92744 16137 ft 354 kts 287°
2026-04-18 07:48 51.78442 0.88810 15262 ft 356 kts 265°
2026-04-18 07:48 51.77931 0.85009 15016 ft 338 kts 252°
2026-04-18 07:48 51.77200 0.81502 14842 ft 321 kts 251°
2026-04-18 07:49 51.76492 0.78172 14604 ft 308 kts 251°
2026-04-18 07:49 51.75832 0.74913 14310 ft 299 kts 252°
2026-04-18 07:49 51.75228 0.71792 14178 ft 284 kts 253°
2026-04-18 07:49 51.74669 0.68822 13981 ft 271 kts 253°
2026-04-18 07:50 51.74130 0.65924 13561 ft 267 kts 253°
2026-04-18 07:50 51.73600 0.63066 13079 ft 266 kts 253°
2026-04-18 07:50 51.73072 0.60217 12608 ft 264 kts 253°
2026-04-18 07:50 51.72547 0.57393 12124 ft 262 kts 253°
2026-04-18 07:51 51.72026 0.54586 11655 ft 260 kts 253°
2026-04-18 07:51 51.71508 0.51809 11190 ft 258 kts 253°
2026-04-18 07:51 51.70991 0.49038 10728 ft 256 kts 253°
2026-04-18 07:51 51.70483 0.46325 10268 ft 255 kts 253°
2026-04-18 07:52 51.69979 0.43636 10035 ft 243 kts 253°
2026-04-18 07:52 51.69508 0.41126 9989 ft 223 kts 253°
2026-04-18 07:52 51.69081 0.38854 9968 ft 203 kts 251°
2026-04-18 07:52 51.68659 0.36741 9809 ft 197 kts 251°
2026-04-18 07:53 51.68173 0.34737 9739 ft 187 kts 239°
2026-04-18 07:53 51.67479 0.32895 9246 ft 200 kts 240°
2026-04-18 07:53 51.66788 0.30911 8980 ft 204 kts 241°
2026-04-18 07:53 51.66098 0.28924 8765 ft 203 kts 241°
2026-04-18 07:54 51.65409 0.26943 8546 ft 202 kts 241°
2026-04-18 07:54 51.64722 0.24968 8358 ft 202 kts 241°
2026-04-18 07:54 51.64039 0.23004 8159 ft 201 kts 241°
2026-04-18 07:54 51.63355 0.21043 7974 ft 200 kts 241°
2026-04-18 07:55 51.62674 0.19083 7729 ft 201 kts 241°
2026-04-18 07:55 51.61995 0.17128 7556 ft 199 kts 241°
2026-04-18 07:55 51.61318 0.15185 7372 ft 198 kts 241°
2026-04-18 07:55 51.60645 0.13253 7174 ft 198 kts 241°
2026-04-18 07:56 51.59971 0.11324 6970 ft 197 kts 241°
2026-04-18 07:56 51.59302 0.09407 6770 ft 197 kts 241°
2026-04-18 07:56 51.58634 0.07494 6598 ft 196 kts 240°
2026-04-18 07:56 51.57729 0.05891 6335 ft 197 kts 209°
2026-04-18 07:57 51.56391 0.05378 6002 ft 203 kts 182°
2026-04-18 07:57 51.54990 0.05364 5830 ft 201 kts 181°
2026-04-18 07:57 51.53620 0.05349 5702 ft 197 kts 181°
2026-04-18 07:57 51.52254 0.05334 5514 ft 196 kts 181°
2026-04-18 07:58 51.49584 0.05308 4863 ft 189 kts 181°
2026-04-18 07:58 51.48272 0.05166 4232 ft 190 kts 197°
2026-04-18 07:58 51.47188 0.03973 3562 ft 194 kts 234°
2026-04-18 07:59 51.46748 0.01959 2904 ft 194 kts 265°
2026-04-18 07:59 51.46736 -0.00209 2243 ft 195 kts 271°
2026-04-18 07:59 51.46786 -0.02393 1553 ft 196 kts 272°
2026-04-18 07:59 51.46809 -0.04574 999 ft 189 kts 273°
2026-04-18 08:00 51.46809 -0.06532 844 ft 165 kts 273°
2026-04-18 08:00 51.46794 -0.08298 597 ft 153 kts 270°
2026-04-18 08:00 51.46752 -0.10141 590 ft 187 kts 272°
2026-04-18 08:00 51.46706 -0.11590 599 ft 196 kts 271°
2026-04-18 08:01 51.46672 -0.12974 593 ft 202 kts 270°
2026-04-18 08:01 51.46629 -0.15240 657 ft 206 kts 272°
2026-04-18 08:01 51.46663 -0.17620 595 ft 218 kts 277°
2026-04-18 08:01 51.46724 -0.19981 603 ft 208 kts 277°
2026-04-18 08:02 51.46814 -0.22322 722 ft 211 kts 276°
2026-04-18 08:02 51.46856 -0.24697 781 ft 212 kts 275°
2026-04-18 08:02 51.46812 -0.27005 986 ft 201 kts 269°
2026-04-18 08:02 51.46677 -0.29169 1127 ft 190 kts 284°
2026-04-18 08:03 51.46581 -0.31242 1150 ft 180 kts 290°
2026-04-18 08:03 51.46690 -0.33378 1327 ft 212 kts 273°
2026-04-18 08:03 51.46665 -0.35677 1444 ft 197 kts 268°
2026-04-18 08:03 51.46572 -0.37845 1079 ft 196 kts 270°
2026-04-18 08:04 51.46471 -0.39978 768 ft 187 kts 276°
2026-04-18 08:04 51.46470 -0.41939 367 ft 164 kts 278°
2026-04-18 08:04 51.46502 -0.43614 125 ft 139 kts 272°
2026-04-18 08:04 51.46498 -0.44960 95 ft 98 kts 270°
2026-04-18 08:05 51.46493 -0.45886 87 ft 70 kts 269°
2026-04-18 08:05 51.46502 -0.46537 95 ft 46 kts 282°
2026-04-18 08:05 51.46577 -0.46825 94 ft 0 kts 328°
2026-04-18 08:05 51.46590 -0.46838 96 ft 5 kts 330°
2026-04-18 08:06 51.46634 -0.46875 95 ft 9 kts 334°
2026-04-18 08:06 51.46708 -0.46924 94 ft 9 kts 343°
2026-04-18 08:06 51.46711 -0.46925 93 ft 0 kts 344°
2026-04-18 08:07 51.46722 -0.46926 93 ft 5 kts 22°